User: anonymous   Login
Location: Nag� el Ma?a??a
(24.0667°N, 32.8833°E)
Time: 18:08:31
(UTC+00:00)
Language:

CZ-2C R/B - Orbit

View from above orbital plane
View from above orbital plane
View from above satellite
View from above satellite

Ground track
Ground track

The orbit data is extracted from the following two-line orbital elements,

1 36089U 09061B   21339.88168387  .00000057  00000-0  25706-4 0  9995
2 36089  98.2286 304.5366 0082991  66.5586 346.2115 14.49885220638186
Epoch (UTC): 05 December 2021 21:09:37
Eccentricity: 0.0082991
inclination: 98.2286°
perigee height: 667 km
apogee height: 785 km
right ascension of ascending node: 304.5366°
argument of perigee: 66.5586°
revolutions per day: 14.49885220
mean anomaly at epoch: 346.2115°
orbit number at epoch: 63818

The dashed part of the orbit path shows where the satellite is in the earth's shadow,  

DLR